Location: *
(53.0502°S, 174.1691°W)
Time: 00:44:28
(UTC+00:00)

Daily predictions for brighter satellites

Satellite Brightness Start Highest point End
(mag) Time Altitude Azimuth Time Altitude Azimuth Time Altitude Azimuth
Tsikada Rocket 4.2 07:23:26 10° N 07:29:53 89° W 07:36:20 10° S
Cosmos 1536 2.8 07:25:58 10° S 07:30:04 75° ESE 07:34:06 10° NNE
STARLINK-1103 3.7 07:26:05 10° W 07:30:20 89° S 07:34:34 10° E
STARLINK-1113 3.7 07:27:59 10° W 07:32:11 89° S 07:36:23 10° E
Cosmos 2242 Rocket 4.3 07:27:59 10° NNE 07:32:14 37° E 07:36:29 10° SSE
Cosmos 2082 Rocket 2.5 07:27:25 10° N 07:32:54 47° ENE 07:38:26 10° SE
YAOGAN 1 2.8 07:28:43 10° SSE 07:33:10 78° WSW 07:37:33 10° NNW
Cosmos 2219 Rocket 4.3 07:30:35 10° SSW 07:34:12 17° SSE 07:37:49 10° ESE
SL-27 R/B 4.4 07:33:07 10° ENE 07:34:25 12° E 07:35:43 10° ESE
Cosmos 1461 3.0 07:30:05 10° SW 07:34:26 68° SE 07:38:33 10° NE
Cosmos 1733 Rocket 3.4 07:30:18 10° SSW 07:34:50 74° W 07:39:20 10° N
STARLINK-1101 3.7 07:31:05 10° W 07:35:19 89° S 07:39:34 10° E
Cosmos 1975 4.3 07:32:39 10° SSE 07:35:56 22° ESE 07:39:12 10° ENE
Cosmos 1503 Rocket 4.2 07:31:07 10° N 07:36:08 51° ENE 07:41:14 10° SSE
STARLINK-1119 3.7 07:32:46 10° W 07:36:59 89° S 07:41:11 10° E
SL-24 DEB 4.4 07:34:23 10° S 07:39:15 65° E 07:44:04 10° N
Cosmos 1743 3.6 07:35:44 10° S 07:39:24 33° ESE 07:43:01 10° NE
CZ-4 R/B 2.5 07:36:02 10° S 07:40:03 51° WSW 07:44:07 10° NW
STARLINK-1102 3.7 07:36:03 10° W 07:40:18 89° S 07:44:33 10° E
STARLINK-1114 3.7 07:37:31 10° W 07:41:44 89° SSE 07:45:56 10° E
Cosmos 1939 Rocket 3.4 07:38:15 10° S 07:42:14 65° WSW 07:46:14 10° NNW
FREGAT/IRIS 3.1 07:39:40 10° SSE 07:42:20 34° E 07:44:57 10° NNE
Cosmos 1833 Rocket 2.7 07:37:09 10° NNW 07:42:47 77° ENE 07:48:29 10° SSE
STARLINK-1124 2.7 07:40:44 10° W 07:43:46 79° NNW 07:46:41 11° ENE
STARLINK-1070 2.7 07:40:54 10° W 07:43:56 83° N 07:46:53 10° ENE
STARLINK-1066 2.7 07:41:04 10° W 07:44:06 83° N 07:47:03 10° ENE
STARLINK-1081 2.7 07:41:16 10° W 07:44:18 83° N 07:47:14 10° ENE
Mayak 0.3 07:41:12 10° ENE 07:44:29 22° ESE 07:47:48 10° S
STARLINK-1069 2.7 07:41:44 10° W 07:44:46 83° N 07:47:42 11° ENE
STARLINK-1085 2.7 07:41:59 10° W 07:45:01 83° N 07:47:55 11° ENE
H-2A R/B 2.5 07:40:20 10° SSE 07:45:02 38° E 07:49:45 10° NNE
SL-24 R/B - RUBIN 2 4.0 07:39:57 10° NNW 07:45:12 53° NE 07:49:54 10° SE
STARLINK-1086 2.7 07:42:12 10° W 07:45:14 83° N 07:48:09 11° ENE
STARLINK-1111 3.7 07:41:03 10° W 07:45:18 89° SSE 07:49:33 10° E
STARLINK-1095 2.7 07:42:25 10° W 07:45:27 82° N 07:48:21 11° ENE
STARLINK-1077 2.7 07:42:39 10° W 07:45:40 82° N 07:48:34 11° ENE
STARLINK-1075 2.7 07:42:53 10° W 07:45:55 82° N 07:48:48 11° ENE
STARLINK-1093 2.7 07:43:06 10° W 07:46:08 82° N 07:49:00 11° ENE
STARLINK-1074 2.7 07:43:23 10° W 07:46:25 82° N 07:49:17 11° ENE
Ariane Rocket 3.2 07:41:28 10° SSE 07:46:30 51° E 07:51:29 10° N
STARLINK-1130 (DARKSAT) 3.7 07:42:18 10° W 07:46:31 89° S 07:50:43 10° E
STARLINK-1087 2.7 07:43:33 10° W 07:46:35 82° N 07:49:26 11° ENE
Cosmos 405 Rocket 3.0 07:42:52 10° S 07:46:41 52° ESE 07:50:30 10° NNE
STARLINK-1088 2.7 07:43:46 10° W 07:46:47 82° NNW 07:49:38 11° ENE
STARLINK-1115 2.7 07:43:59 10° W 07:47:00 82° N 07:49:51 11° ENE
STARLINK-1076 2.7 07:44:14 10° W 07:47:15 82° NNW 07:50:06 11° ENE
STARLINK-1092 2.7 07:44:26 10° W 07:47:28 82° N 07:50:17 11° ENE
STARLINK-1080 2.7 07:44:40 10° W 07:47:42 81° N 07:50:32 11° ENE
STARLINK-1090 2.7 07:44:56 10° W 07:47:57 81° NNW 07:50:47 11° ENE
STARLINK-1089 2.7 07:45:10 10° W 07:48:11 81° N 07:50:59 12° ENE
STARLINK-1107 2.7 07:45:22 10° W 07:48:23 81° NNW 07:51:10 12° ENE
STARLINK-1109 2.7 07:45:35 10° W 07:48:36 81° NNW 07:51:23 12° ENE
Cosmos 1862 Rocket 3.6 07:44:15 10° N 07:48:45 81° E 07:53:21 10° SSE
STARLINK-1091 2.7 07:45:49 10° W 07:48:50 81° NNW 07:51:38 12° ENE
STARLINK-1072 2.7 07:46:00 10° W 07:49:02 81° NNW 07:51:48 12° ENE
Cosmos 2360 Rocket 3.4 07:44:12 10° SSW 07:49:16 30° SE 07:54:18 10° E
STARLINK-1096 2.7 07:46:15 10° W 07:49:17 81° N 07:52:01 12° ENE
CZ-2C R/B 4.0 07:44:26 10° NNW 07:49:22 40° W 07:54:19 10° SSW
Cosmos 1697 Rocket 3.9 07:44:06 10° SW 07:49:27 42° WNW 07:54:45 10° N
STARLINK-1079 2.7 07:46:29 10° W 07:49:30 81° N 07:52:16 12° ENE
STARLINK-1116 2.7 07:46:41 10° W 07:49:43 81° N 07:52:27 12° ENE
STARLINK-1094 2.7 07:47:08 10° W 07:50:10 80° N 07:52:54 12° ENE
STARLINK-1073 3.7 07:46:03 10° W 07:50:18 89° SSE 07:54:33 10° E
STARLINK-1117 2.7 07:47:23 10° W 07:50:24 80° N 07:53:07 12° ENE
STARLINK-1078 2.7 07:47:36 10° W 07:50:37 80° N 07:53:20 12° ENE
STARLINK-1108 2.7 07:47:52 10° W 07:50:53 80° NNW 07:53:35 12° ENE
STARLINK-1071 2.7 07:48:04 10° W 07:51:05 80° NNW 07:53:46 12° ENE
STARLINK-1084 3.6 07:47:06 10° W 07:51:19 90° S 07:55:31 10° E
STARLINK-1110 2.7 07:48:18 10° W 07:51:19 80° NNW 07:54:00 12° ENE
STARLINK-1122 2.7 07:48:45 10° W 07:51:47 80° N 07:54:26 13° ENE
USA 186 1.8 07:49:25 10° SSE 07:51:53 34° E 07:54:12 10° NNE
STARLINK-1126 2.7 07:48:57 10° W 07:51:58 80° NNW 07:54:37 13° ENE
Cosmos 1782 Rocket 4.0 07:47:54 10° S 07:52:11 44° ESE 07:56:24 10° NE
STARLINK-1082 2.7 07:49:11 10° W 07:52:12 79° NNW 07:54:51 13° ENE
STARLINK-1100 2.7 07:49:22 10° W 07:52:23 79° NNW 07:55:02 13° ENE
STARLINK-1083 2.7 07:49:38 10° W 07:52:39 79° NNW 07:55:17 13° ENE
STARLINK-1125 2.7 07:49:50 10° W 07:52:51 79° NNW 07:55:29 13° ENE
Cosmos 1184 Rocket 3.7 07:50:24 10° S 07:53:35 34° ESE 07:56:18 13° NE
Meteor 1-27 Rocket 3.9 07:47:48 10° N 07:53:43 88° E 07:59:47 10° SSE
Cosmos 1538 Rocket 4.4 07:48:34 10° SSW 07:53:57 56° ESE 07:59:01 11° NE
STARLINK-1121 3.7 07:51:03 10° W 07:55:18 90° NE 07:59:31 10° E
Cosmos 1980 Rocket 2.7 07:50:48 10° SW 07:56:31 63° WNW 08:02:10 10° NNE
CZ-2C R/B 3.5 07:53:36 10° SSE 07:58:40 44° E 08:03:56 10° N
STARLINK-1106 3.7 07:56:02 10° W 08:00:18 89° N 08:04:19 11° E
ATLAS CENTAUR R/B 3.5 08:00:13 10° SW 08:03:37 22° SSE 08:07:12 10° ESE
STARLINK-1112 3.7 08:01:01 10° W 08:05:16 88° NNW 08:09:06 13° E
Cosmos 1703 Rocket 3.9 08:00:59 10° NNE 08:05:20 48° E 08:09:43 10° SSE
Cosmos 1812 3.9 08:01:55 10° NNW 08:05:43 47° WSW 08:09:35 10° S
STARLINK-1118 2.4 08:04:34 10° W 08:07:04 63° NNW 08:08:33 21° ENE
HJ-1C 4.2 08:04:11 10° S 08:07:37 57° WSW 08:10:59 10° NNW
ERBS 2.2 08:05:14 10° NW 08:08:38 70° NNE 08:12:06 10° ESE
USA 215 3.3 08:06:27 13° ENE 08:12:28 81° NNW 08:19:08 10° WSW
Resurs 01 Rocket 2.9 08:09:48 10° SE 08:13:29 24° E 08:15:47 17° NE
Okean 2 Rocket 4.0 08:10:01 10° S 08:14:17 36° ESE 08:17:18 17° NE
GP-B 3.1 08:10:21 10° S 08:14:55 85° E 08:19:27 10° N
Okean 1-7 3.2 08:12:53 10° N 08:17:13 53° E 08:21:38 10° SSE
MONITOR-E 4.0 08:14:45 10° S 08:17:34 76° WSW 08:20:20 10° NNW
MOS 1 4.3 08:13:15 10° SSE 08:19:02 67° ENE 08:24:46 10° N
Cosmos 1666 4.1 08:17:24 10° SSW 08:21:00 39° W 08:24:35 10° NNW
SL-16 R/B 2.2 08:18:05 10° SSW 08:23:52 79° ESE 08:28:18 17° NE
ARGOS Delta rocket 3.9 08:19:05 10° SSE 08:24:22 73° E 08:29:18 10° N
Cosmos 1908 Rocket 4.2 08:20:35 10° SSW 08:24:57 58° W 08:29:15 10° N
Cosmos 1300 Rocket 4.4 08:21:41 10° S 08:25:46 35° ESE 08:28:09 20° ENE
SL-24 R/B 4.3 08:22:06 10° SSE 08:26:35 86° WSW 08:31:22 10° NNW
SPOT 3 Rocket 3.8 08:21:31 10° SSE 08:26:37 49° E 08:31:39 10° N
SJ-6B 2.7 08:23:21 10° SSE 08:27:27 77° ENE 08:31:22 10° N
Cosmos 405 3.3 08:27:25 16° NNE 08:30:01 46° E 08:33:32 10° SSE
Cosmos 1544 3.6 08:27:48 10° S 08:31:25 43° ESE 08:33:14 24° NE
CZ-4C R/B 2.5 08:26:20 10° SW 08:32:31 62° SE 08:36:15 19° ENE
Cosmos 1354 Rocket 4.3 08:27:43 10° NNW 08:32:59 71° WSW 08:38:20 10° SSE
Cosmos 2221 Rocket 4.3 08:32:01 21° NE 08:34:21 35° E 08:38:27 10° SSE
Okean 1 3.3 08:31:07 10° N 08:35:06 68° E 08:39:10 10° SSE
MetOp-A 4.4 08:30:23 10° SSE 08:35:42 50° E 08:40:38 12° N
Sich 1 Rocket 3.6 08:31:24 10° S 08:35:55 81° ESE 08:39:16 18° NNE
Meteor 2-4 Rocket 4.4 08:34:19 18° NE 08:37:55 36° E 08:43:05 10° SSE
STARLINK-1098 3.6 08:35:53 10° W 08:40:06 78° NNW 08:42:31 25° ENE
ARGOS 3.2 08:38:03 10° SSE 08:43:33 89° ENE 08:48:59 10° NNW
STARLINK-1123 3.6 08:40:50 10° W 08:45:02 76° NNW 08:47:16 27° ENE
deb Kosmos-1763 4.4 08:42:34 10° NNW 08:46:18 70° WSW 08:50:03 10° SSE
STARLINK-1097 3.6 08:45:48 10° W 08:50:01 73° NNW 08:52:03 29° ENE
RESURS DK-1 3.7 08:47:26 10° SW 08:51:15 34° WNW 08:54:08 15° N
Cosmos 2333 Rocket 3.3 08:47:40 10° SSW 08:52:57 34° SE 08:56:38 18° E
STARLINK-1099 3.6 08:50:45 10° W 08:54:58 71° NNW 08:56:48 32° ENE
Cosmos 2322 4.4 08:51:00 10° SSW 08:56:35 46° SE 08:59:52 23° ENE
Thor Agena Rocket 3.7 08:53:46 18° N 08:57:37 70° WNW 09:02:47 10° SSW
EO 1 Del DPAF 3.5 08:55:38 23° N 08:57:53 65° WNW 09:01:45 10° SSW
ISS -3.8 08:55:10 10° W 08:58:35 69° N 08:59:37 41° ENE
BREEZE-M DEB (TANK) 3.7 08:56:15 10° W 08:59:07 44° N 09:01:43 26° NE
STARLINK-1104 3.6 08:55:43 10° W 08:59:56 69° NNW 09:01:35 35° NE
ERS-1 Rocket 4.4 08:58:52 10° SE 09:02:36 20° E 09:03:00 20° E
STARLINK-1144 3.7 09:00:42 10° W 09:04:53 66° NNW 09:06:22 38° NE
Cosmos 2322 Rocket 2.4 09:00:46 10° SW 09:06:26 66° WNW 09:09:46 25° N
STARLINK-1128 3.7 09:02:41 10° W 09:06:50 64° NNW 09:08:10 39° NE
SL-27 R/B 2.6 09:05:30 10° NNW 09:08:57 71° WSW 09:12:31 10° SSE
STARLINK-1103 3.7 09:05:41 10° W 09:09:52 64° NNW 09:11:09 41° NE
ATLAS 5 CENTAUR R/B 2.8 09:02:59 10° NW 09:09:59 74° SW 09:16:14 10° SE
STARLINK-1113 3.7 09:07:24 10° W 09:11:33 62° NNW 09:12:43 42° NE
Cosmos 1975 3.7 09:08:41 10° SSW 09:12:40 47° W 09:15:14 20° NNW
Cosmos 1674 Rocket 4.2 09:12:13 34° ENE 09:12:52 36° E 09:16:56 10° SSE
Cosmos 2285 Rocket 4.0 09:07:08 11° N 09:13:23 63° ENE 09:19:49 10° SSE
Nadezhda 4 Rocket 4.2 09:07:41 10° NNW 09:14:04 76° WSW 09:20:27 10° S
Cosmos 2237 Rocket 3.9 09:09:54 10° SSW 09:14:34 24° SE 09:18:42 12° E
STARLINK-1101 3.7 09:10:40 10° W 09:14:51 61° NNW 09:15:56 44° NE
Cosmos 1515 3.7 09:13:44 29° NNW 09:15:39 87° WSW 09:19:36 10° S
STARLINK-1119 3.7 09:12:13 10° W 09:16:20 60° NNW 09:17:19 45° NNE
Cosmos 2082 Rocket 3.5 09:11:37 10° WNW 09:17:06 43° SW 09:22:38 10° SSE
Cosmos 923 Rocket 4.1 09:12:44 10° SSW 09:18:03 77° WNW 09:20:34 32° NNE
Geosat 4.1 09:16:02 33° NE 09:18:18 68° SE 09:23:23 10° SSW
STARLINK-1124 4.3 09:16:02 10° W 09:18:12 26° NW 09:18:12 26° NW
STARLINK-1070 4.1 09:16:10 10° W 09:18:24 29° NW 09:18:24 29° NW
STARLINK-1066 4.1 09:16:20 10° W 09:18:34 29° NW 09:18:34 29° NW
STARLINK-1081 4.1 09:16:31 10° W 09:18:45 29° NW 09:18:45 29° NW
SL-8 R/B 3.9 09:14:45 10° WNW 09:19:26 50° N 09:20:39 40° NE
Cosmos 2219 Rocket 2.9 09:14:16 10° SSW 09:19:43 43° SE 09:22:29 26° ENE
STARLINK-1069 4.1 09:17:00 10° W 09:19:13 29° NW 09:19:13 29° NW
Mayak -0.7 09:17:32 26° NNW 09:19:45 54° W 09:23:57 10° SSW
STARLINK-1102 3.8 09:15:40 10° W 09:19:50 59° NNW 09:20:44 46° NNE
Aureole 3 Rocket 3.2 09:16:57 10° S 09:19:44 34° ESE 09:19:44 34° ESE
STARLINK-1085 4.2 09:17:16 10° W 09:19:27 28° NW 09:19:27 28° NW
STARLINK-1086 4.2 09:17:28 10° W 09:19:40 28° NW 09:19:40 28° NW
STARLINK-1095 4.2 09:17:41 10° W 09:19:52 28° NW 09:19:52 28° NW
STARLINK-1077 4.2 09:17:55 10° W 09:20:05 28° NW 09:20:05 28° NW
STARLINK-1075 4.2 09:18:09 10° W 09:20:19 28° NW 09:20:19 28° NW
STARLINK-1114 3.8 09:16:58 10° W 09:21:05 57° NNW 09:21:54 47° NNE
STARLINK-1093 4.2 09:18:23 10° W 09:20:32 28° NW 09:20:32 28° NW
Cosmos 2026 Rocket 4.0 09:17:39 26° NNE 09:21:06 64° E 09:27:15 10° SSE
STARLINK-1074 4.2 09:18:40 10° W 09:20:48 28° NW 09:20:48 28° NW
STARLINK-1087 4.2 09:18:50 10° W 09:20:58 28° NW 09:20:58 28° NW
STARLINK-1088 4.2 09:19:03 10° W 09:21:10 27° NW 09:21:10 27° NW
STARLINK-1115 4.2 09:19:16 10° W 09:21:22 27° NW 09:21:22 27° NW
STARLINK-1076 4.2 09:19:31 10° W 09:21:37 27° NW 09:21:37 27° NW
STARLINK-1092 4.3 09:19:43 10° W 09:21:48 27° NW 09:21:48 27° NW
STARLINK-1080 4.3 09:19:58 10° W 09:22:03 27° NW 09:22:03 27° NW
STARLINK-1090 4.3 09:20:14 10° W 09:22:18 27° NW 09:22:18 27° NW
STARLINK-1089 4.3 09:20:27 10° W 09:22:30 27° NW 09:22:30 27° NW
S3M 4.4 09:17:07 10° S 09:23:13 49° ESE 09:25:47 32° NE
STARLINK-1107 4.3 09:20:39 10° W 09:22:41 26° NW 09:22:41 26° NW
STARLINK-1109 4.3 09:20:52 10° W 09:22:55 26° NW 09:22:55 26° NW
STARLINK-1091 4.3 09:21:07 10° W 09:23:09 26° NW 09:23:09 26° NW
STARLINK-1072 4.3 09:21:18 10° W 09:23:20 26° NW 09:23:20 26° NW
STARLINK-1096 4.3 09:21:32 10° W 09:23:32 26° NW 09:23:32 26° NW
SPOT 5 4.1 09:20:15 10° SE 09:24:19 25° E 09:24:27 25° E
STARLINK-1079 4.3 09:21:47 10° W 09:23:47 26° NW 09:23:47 26° NW
H-2A R/B 3.4 09:19:51 10° S 09:24:30 39° WSW 09:29:10 10° NW
STARLINK-1116 4.4 09:21:59 10° W 09:23:58 26° NW 09:23:58 26° NW
STARLINK-1111 3.8 09:20:39 10° W 09:24:48 56° NNW 09:25:32 48° NNE
STARLINK-1094 4.4 09:22:26 10° W 09:24:25 26° NW 09:24:25 26° NW
STARLINK-1117 4.4 09:22:41 10° W 09:24:39 25° NW 09:24:39 25° NW
STARLINK-1078 4.4 09:22:54 10° W 09:24:51 25° WNW 09:24:51 25° WNW
STARLINK-1108 4.4 09:23:10 10° W 09:25:07 25° WNW 09:25:07 25° WNW
STARLINK-1130 (DARKSAT) 3.8 09:21:45 10° W 09:25:51 55° NNW 09:26:29 49° NNE
STARLINK-1071 4.4 09:23:22 10° W 09:25:18 25° WNW 09:25:18 25° WNW
STARLINK-1110 4.4 09:23:35 10° W 09:25:31 25° WNW 09:25:31 25° WNW
Okean 1 Rocket 3.3 09:22:12 10° S 09:26:38 54° ESE 09:27:41 43° ENE
STARLINK-1122 4.4 09:24:03 10° W 09:25:57 25° WNW 09:25:57 25° WNW
STARLINK-1126 4.5 09:24:15 10° W 09:26:09 25° WNW 09:26:09 25° WNW
STARLINK-1082 4.5 09:24:29 10° W 09:26:23 24° WNW 09:26:23 24° WNW
STARLINK-1100 4.5 09:24:40 10° W 09:26:33 24° WNW 09:26:33 24° WNW
STARLINK-1083 4.5 09:24:57 10° W 09:26:49 24° WNW 09:26:49 24° WNW
STARLINK-1125 4.5 09:25:09 10° W 09:27:00 24° WNW 09:27:00 24° WNW
Landsat 7 4.3 09:24:17 10° SSE 09:28:53 42° E 09:29:36 39° ENE
STARLINK-1073 3.8 09:25:40 10° W 09:29:48 54° NNW 09:30:20 50° N
STARLINK-1084 3.8 09:26:33 10° W 09:30:38 52° NNW 09:31:06 49° N
Cosmos 2360 Rocket 2.3 09:28:05 10° SW 09:33:50 75° WNW 09:36:12 37° NNE
Okean 3 3.5 09:31:55 31° NNW 09:33:52 76° WSW 09:38:10 10° S
STARLINK-1121 3.9 09:30:40 10° W 09:34:47 51° NNW 09:35:09 50° N
Cosmos 1417 Rocket 4.5 09:30:23 10° S 09:36:37 71° ESE 09:39:14 37° NNE
IGS 5A 3.8 09:32:34 10° SSE 09:36:41 47° E 09:36:48 46° ENE
Cosmos 158 Rocket 3.8 09:32:23 10° SSW 09:37:25 88° ESE 09:38:55 46° NNE
Cosmos 1455 Rocket 4.4 09:35:35 10° S 09:39:28 27° ESE 09:40:11 25° E
STARLINK-1106 3.9 09:35:40 10° W 09:39:46 49° NNW 09:39:56 48° NNW
Meteor 1-4 Rocket 4.3 09:42:18 23° ESE 09:42:18 23° ESE 09:44:31 10° SE
Cosmos 2237 4.4 09:36:20 10° SW 09:42:06 66° WNW 09:44:21 37° N
Cosmos 2151 Rocket 4.1 09:38:07 10° SSW 09:42:32 55° W 09:44:09 35° NNW
Spot 2 Rocket 3.4 09:37:50 10° SSE 09:43:00 72° ENE 09:44:45 41° N
ATLAS CENTAUR R/B 2.1 09:39:01 10° SW 09:43:24 54° SE 09:44:49 38° E
STARLINK-1112 4.0 09:40:39 10° W 09:44:43 46° NNW 09:44:43 46° NNW
ERBS 3.4 09:41:48 10° W 09:45:09 46° S 09:46:59 23° SE
Cosmos 1766 4.4 09:42:15 10° S 09:45:50 31° ESE 09:45:52 31° ESE
Cosmos 1356 3.8 09:43:59 10° S 09:47:13 52° SE 09:47:13 52° SE
Cosmos 1898 Rocket 3.8 09:49:27 45° NE 09:50:03 47° ENE 09:55:12 10° SE
Resurs 01 Rocket 2.4 09:45:50 10° S 09:50:16 52° WSW 09:53:20 19° NW
Cosmos 1805 4.1 09:47:00 10° S 09:50:43 36° ESE 09:50:43 36° ESE
MetOp-B 4.1 09:45:17 10° SSE 09:50:46 86° ENE 09:53:12 35° NNW
COSMOS 2428 2.9 09:46:05 10° SSW 09:51:49 63° SE 09:53:48 40° ENE
Cosmos 1680 Rocket 4.0 09:49:02 10° SSW 09:54:17 53° WNW 09:56:07 36° NNW
Cosmos 1092 Rocket 4.4 09:49:41 15° NNW 09:55:01 61° WSW 10:01:17 10° S
USA 215 4.2 09:53:47 27° N 09:56:05 34° NW 10:02:02 10° WSW
SL-16 R/B 4.1 09:54:54 10° SSW 09:59:25 23° SSE 10:03:47 10° E
SJ 16-02 1.4 10:01:50 60° E 10:01:50 60° E 10:06:08 10° SSE
Cosmos 1975 Rocket 4.1 10:03:04 33° E 10:03:04 33° E 10:06:46 10° SSE
CARTOSAT-1 3.8 09:58:47 10° SSE 10:02:58 51° E 10:02:58 51° E
Cosmos 1733 4.3 10:01:56 10° S 10:05:20 34° ESE 10:05:20 34° ESE
SL-16 R/B 4.0 10:03:01 10° SW 10:07:23 23° WNW 10:10:11 16° NW
Terra 2.4 10:04:00 10° SSE 10:08:30 41° E 10:08:30 41° E
MOS 1-B Rocket 4.3 10:10:32 42° NE 10:12:44 66° ESE 10:19:51 10° SSW
Cosmos 1607 3.9 10:13:47 17° NW 10:18:54 83° NE 10:25:20 10° SE
CZ-4C R/B 2.9 10:15:28 10° SW 10:20:42 35° WNW 10:21:25 34° NW
COSMOS 2487 3.1 10:22:24 54° SSW 10:22:24 54° SSW 10:25:31 10° SSE
Cosmos 1378 Rocket 3.7 10:21:22 60° NW 10:22:01 70° WSW 10:26:33 10° S
Helios 1B rocket 2.4 10:23:41 74° ESE 10:23:41 74° ESE 10:27:50 10° SSW
Cosmos 1437 Rocket 4.5 10:26:30 24° ESE 10:26:30 24° ESE 10:28:55 10° SSE
USA 245 4.4 10:21:55 10° S 10:27:23 58° WSW 10:29:01 38° NW
Cosmos 389 Rocket 3.3 10:30:52 49° SW 10:30:52 49° SW 10:34:02 10° S
SL-24 R/B 4.4 10:30:41 67° NNE 10:31:24 84° E 10:36:53 10° S
ISS -1.1 10:31:55 10° W 10:32:34 15° W 10:32:34 15° W
Cosmos 883 Rocket 4.5 10:30:37 10° S 10:37:04 88° W 10:38:42 53° N
Cosmos 2333 Rocket 2.3 10:31:53 10° SW 10:37:38 65° WNW 10:38:37 55° NNW
CZ-2D R/B 3.9 10:38:31 19° E 10:40:44 24° SE 10:45:08 10° S
Cosmos 2322 4.3 10:35:22 10° SW 10:40:49 44° WNW 10:41:47 40° NW
ERS-1 Rocket 3.1 10:36:50 10° SSE 10:41:57 74° WSW 10:43:00 56° NW
Cosmos 990 Rocket 4.1 10:43:44 49° NW 10:45:07 73° WSW 10:50:28 10° SSE
SPOT 1/Viking Rocket 3.9 10:40:15 10° S 10:45:28 60° WSW 10:47:06 41° NW
Meteor 1-22 Rocket 4.4 10:42:38 10° SSW 10:48:43 79° W 10:50:00 57° N
NOSS 0 Rocket 3.9 10:42:43 10° SW 10:49:03 88° NW 10:50:22 59° NNE
Cosmos 1937 Rocket 3.4 10:48:27 68° NW 10:49:08 86° WSW 10:54:24 10° SSE
Cosmos 2322 Rocket 4.4 10:46:55 10° WSW 10:49:25 13° W 10:51:36 11° WNW
Meteor 2-15 Rocket 4.5 10:46:19 10° S 10:52:33 70° ESE 10:53:49 55° NE
Okean 2 3.7 10:53:49 63° SSE 10:53:49 63° SSE 10:57:24 10° SSE
Cosmos 2315 Rocket 4.0 10:47:11 10° SSW 10:53:38 84° W 10:55:03 57° N
ATLAS 5 CENTAUR R/B 3.9 10:49:30 10° W 10:55:38 36° SSW 11:01:04 10° SE
Cosmos 724 4.3 10:56:01 62° NNE 10:56:36 66° NE 11:02:47 10° SE
Cosmos 2237 Rocket 2.2 10:53:45 10° SSW 10:59:34 79° ESE 11:00:30 63° NE
SPOT 5 3.3 10:57:53 10° S 11:02:41 58° WSW 11:03:40 49° WNW
Cosmos 1470 3.5 10:58:45 10° S 11:02:08 51° SSE 11:02:08 51° SSE
Cosmos 2219 Rocket 2.7 10:58:21 10° SW 11:03:44 46° WNW 11:04:11 45° NW
Cosmos 1842 4.0 11:07:06 50° SSE 11:07:06 50° SSE 11:10:12 10° SSE
Timation 2 Rocket 3.9 11:06:13 61° NNE 11:07:03 69° ENE 11:13:16 10° SE
PSLV R/B 3.7 11:07:43 72° SW 11:07:43 72° SW 11:11:53 10° SSW
Cosmos 1378 4.1 11:10:09 48° SSW 11:10:09 48° SSW 11:13:10 10° S
Cosmos 2266 Rocket 4.2 11:07:52 46° NW 11:09:48 68° WSW 11:16:12 10° S
CZ-4B R/B 4.3 11:09:15 35° E 11:09:58 37° ESE 11:14:27 10° S
Resurs 1-4 Rocket 3.1 11:12:03 33° E 11:13:19 37° ESE 11:18:14 10° S
Cosmos 2298 Rocket 4.0 11:15:28 72° ENE 11:15:28 72° ENE 11:20:49 10° SSE
Meteor 1-4 Rocket 4.1 11:16:30 33° WSW 11:16:30 33° WSW 11:19:45 10° S
Cosmos 2360 Rocket 4.2 11:13:42 10° WSW 11:16:53 15° W 11:17:58 15° WNW
Cosmos 1455 Rocket 3.8 11:13:09 10° SSW 11:17:17 45° W 11:17:17 45° W
SME Rocket 4.3 11:19:37 31° WSW 11:19:37 31° WSW 11:22:27 10° SSW
Cosmos 44 3.3 11:21:27 84° NNE 11:21:31 85° NE 11:26:57 10° SE
ATLAS CENTAUR R/B 3.0 11:18:07 10° WSW 11:20:59 29° W 11:20:59 29° W
Spot 4 4.3 11:17:34 10° SSE 11:22:06 53° E 11:22:06 53° E
Nadezhda 1 Rocket 4.1 11:22:58 10° S 11:29:08 62° ESE 11:30:16 53° ENE
SL-19 R/B 4.4 11:29:19 59° NW 11:29:58 63° WNW 11:35:40 10° SSW
Cosmos 1726 3.6 11:26:58 10° S 11:29:39 33° SE 11:29:39 33° SE
Cosmos 372 Rocket 3.8 11:33:37 82° WNW 11:33:46 84° WSW 11:38:59 10° SSE
Cosmos 2150 Rocket 3.9 11:34:49 81° NNW 11:35:07 90° N 11:40:35 10° SSE
COSMOS 2428 3.9 11:30:51 10° SW 11:35:45 29° WNW 11:35:47 29° WNW
Cosmos 2297 Rocket 2.8 11:36:05 43° E 11:36:05 43° E 11:41:09 10° SE
Nadezhda 2 Rocket 4.4 11:36:13 62° NNW 11:37:22 83° W 11:43:40 10° S
GEOS 3 Rocket 4.3 11:37:14 28° E 11:39:48 52° SE 11:44:54 10° SW
Cosmos 1975 Rocket 4.3 11:40:12 34° W 11:40:32 34° WSW 11:44:43 10° S
SJ 16-02 3.4 11:38:48 18° W 11:40:42 24° SW 11:44:20 10° S
Cosmos 1269 Rocket 3.9 11:35:24 10° SSW 11:40:49 86° ESE 11:41:04 81° NE
Cosmos 1809 Rocket 4.3 11:42:51 67° NNE 11:43:42 81° E 11:49:56 10° SSE
SL-16 R/B 2.3 11:38:48 10° SSW 11:44:34 71° SE 11:45:37 58° ENE
Terra 3.1 11:41:56 10° S 11:46:18 34° WSW 11:47:22 30° W
Cosmos 1707 3.7 11:47:32 45° SSE 11:47:32 45° SSE 11:50:25 10° SSE
Cosmos 1980 4.1 11:44:26 10° SW 11:49:46 48° WNW 11:49:46 48° WNW
Cosmos 1953 3.0 11:46:22 10° SSW 11:49:39 54° SSW 11:49:39 54° SSW
Cosmos 2084 4.0 11:46:14 10° SW 11:49:41 55° SW 11:49:41 55° SW
Cosmos 2227 Rocket 2.5 11:53:44 52° ENE 11:53:44 52° ENE 11:59:14 10° SE
Helios 1A 4.0 11:50:12 10° SSE 11:53:37 41° ESE 11:53:37 41° ESE
ALOS 2 3.2 11:50:23 10° SSE 11:54:10 51° ESE 11:54:10 51° ESE
AQUA 4.4 11:54:47 48° E 11:55:13 50° ESE 11:59:55 10° S
